CW6238 Weather Reports


Display with metric or nautical units.
time (UTC)temp
F
wind
direction
speed
MPH
gust
MPH
rain 1hr
in
rain 24hr
in
rain mn
in
humidity
%
barometer
mb
20260505001520 49 270 2.0 8.0 0.00 0.30 0.00 57 997.3
20260505000520 49 270 3.0 9.0 0.00 0.30 0.00 56 997.3
20260504235540 48 270 4.0 12.0 0.00 0.30 0.00 56 997.2
20260504234520 48 248 2.0 6.0 0.00 0.30 0.00 57 997.4
20260504233540 48 225 2.0 6.0 0.00 0.30 0.00 56 997.4
20260504232520 49 248 3.0 9.0 0.00 0.30 0.00 55 997.4
20260504231520 49 270 3.0 7.0 0.00 0.30 0.00 55 997.5
20260504230520 49 248 3.0 6.0 0.00 0.30 0.00 55 997.5
20260504225520 49 225 1.0 5.0 0.00 0.30 0.00 55 997.6
20260504224519 49 248 2.0 5.0 0.00 0.30 0.00 54 997.7
20260504223519 50 248 2.0 6.0 0.00 0.30 0.00 53 997.7
20260504222520 50 248 1.0 5.0 0.00 0.30 0.00 53 997.8
20260504221520 51 248 2.0 11.0 0.00 0.30 0.00 52 997.9
20260504220519 51 248 3.0 5.0 0.00 0.30 0.00 50 997.9
20260504215520 50 270 2.0 6.0 0.00 0.30 0.30 52 998.0
20260504214521 50 248 1.0 5.0 0.00 0.30 0.30 53 998.0
20260504213521 50 248 1.0 4.0 0.00 0.30 0.30 52 998.1
20260504212520 51 248 1.0 3.0 0.00 0.30 0.30 53 998.1
20260504211520 51 270 1.0 4.0 0.00 0.30 0.30 53 998.1
20260504210540 51 248 2.0 5.0 0.00 0.30 0.30 52 998.2
20260504205523 51 248 2.0 6.0 0.00 0.30 0.30 52 998.2
20260504204519 51 225 3.0 7.0 0.00 0.30 0.30 53 998.1
20260504203519 51 248 2.0 4.0 0.00 0.30 0.30 54 998.2
20260504202539 51 248 1.0 6.0 0.00 0.30 0.30 57 998.2
20260504201519 51 248 2.0 8.0 0.00 0.30 0.30 57 998.2
20260504200519 51 0.0 4.0 0.00 0.30 0.30 60 998.2
20260504195520 52 0.0 2.0 0.00 0.30 0.30 59 998.1
20260504194519 52 270 1.0 5.0 0.00 0.30 0.30 60 998.1
20260504193520 52 0.0 2.0 0.00 0.30 0.30 60 998.0
20260504192519 53 225 2.0 5.0 0.00 0.30 0.30 59 998.0
20260504191519 53 248 2.0 6.0 0.00 0.30 0.30 59 998.0
20260504190519 54 248 2.0 5.0 0.00 0.30 0.30 58 997.9
20260504185519 54 248 3.0 7.0 0.00 0.30 0.30 59 997.9
20260504184519 54 270 1.0 5.0 0.00 0.30 0.30 60 997.9
20260504183519 54 248 3.0 7.0 0.00 0.30 0.30 60 998.0
20260504182520 54 270 2.0 6.0 0.00 0.30 0.30 61 997.9
20260504181519 55 248 2.0 7.0 0.00 0.30 0.30 61 997.9
20260504180540 55 248 3.0 7.0 0.00 0.30 0.30 61 997.8
20260504175539 56 270 3.0 6.0 0.00 0.30 0.30 60 997.8
20260504174540 56 248 3.0 7.0 0.00 0.30 0.30 60 997.7
20260504173519 55 270 4.0 8.0 0.00 0.30 0.30 61 997.7
20260504172541 55 293 4.0 9.0 0.00 0.30 0.30 60 997.7
20260504171519 56 270 4.0 11.0 0.00 0.30 0.30 58 997.7
20260504170519 56 270 6.0 11.0 0.00 0.30 0.30 56 997.7
20260504150520 59 270 7.0 15.0 0.00 0.30 0.30 61 996.9
20260504140519 60 248 3.0 9.0 0.00 0.30 0.30 65 996.6
20260504130519 58 248 3.0 11.0 0.00 0.30 0.30 73 997.0
20260504110559 54 270 2.0 6.0 0.00 0.30 0.30 84 997.7
20260504100518 51 270 3.0 6.0 0.00 0.30 0.30 92 998.1
20260504081538 46 0.0 0.0 0.00 0.30 0.30 95 998.3
20260504080518 45 90 1.0 3.0 0.01 0.30 0.30 95 998.2
20260504050518 40 0.0 2.0 0.10 0.14 0.14 92 999.9
20260504045518 40 0.0 0.0 0.10 0.12 0.12 92 1000.1
20260504044520 40 0.0 0.0 0.09 0.10 0.10 91 1000.2
20260504043520 40 0.0 0.0 0.09 0.09 0.09 91 1000.1
20260504042518 40 0.0 0.0 0.06 0.07 0.06 90 1000.1
20260504041519 40 0.0 0.0 0.06 0.06 0.06 89 1000.2
20260504040520 40 0.0 1.0 0.04 0.05 0.04 87 1000.1
20260504035520 41 0.0 0.0 0.02 0.02 0.02 85 1000.2
20260504034518 41 0.0 0.0 0.01 0.02 0.01 83 1000.1
20260504033540 41 0.0 0.0 0.00 0.01 0.00 81 1000.2
20260504032520 42 0.0 0.0 0.00 0.01 0.00 79 1000.2
20260504031524 42 0.0 2.0 0.00 0.01 0.00 77 1000.5
20260504030518 42 0.0 0.0 0.00 0.01 0.00 77 1000.6
20260504025520 42 0.0 0.0 0.00 0.01 0.00 76 1000.9
20260504024520 42 0.0 0.0 0.00 0.01 0.00 75 1001.2
20260504023520 42 0.0 0.0 0.00 0.01 0.00 75 1001.4
20260504022520 42 0.0 0.0 0.00 0.01 0.00 75 1001.4
20260504021540 42 0.0 0.0 0.00 0.01 0.00 74 1001.3
20260504020603 42 0.0 0.0 0.00 0.01 0.00 74 1001.3
20260504015520 42 0.0 0.0 0.00 0.01 0.00 74 1001.4
20260504014600 42 0.0 1.0 0.00 0.01 0.00 75 1001.5
20260504013520 42 0.0 0.0 0.00 0.01 0.00 75 1001.6
20260504012540 42 0.0 0.0 0.00 0.01 0.00 76 1001.6
20260504011520 42 0.0 0.0 0.00 0.01 0.00 75 1001.7
20260504010520 42 0.0 0.0 0.00 0.01 0.00 75 1001.9
20260504005520 42 0.0 2.0 0.00 0.01 0.00 75 1001.9
20260504004520 42 0.0 1.0 0.00 0.01 0.00 75 1002.1
20260504003520 43 0.0 0.0 0.00 0.01 0.00 74 1002.2
20260504002519 43 0.0 1.0 0.00 0.01 0.00 74 1002.3